Regional Weather Roundup
Issued by NWS

Home | Current Version | Previous Version | Graphics & Text | Print | Product List | Glossary On
Versions: 1 2 3 4 5 6 7 8 9 10 11 12 13 14 15 16 17 18 19 20 21 22 23 24 25 26 27 28 29 30 31 32 33 34 35 36 37 38 39 40 41 42 43 44 45 46 47
000
ASUS45 KBOU 220707
RWRCO

WEATHER ROUNDUP FOR COLORADO
NATIONAL WEATHER SERVICE DENVER/BOULDER CO
100 AM MDT TUE JUL 22 2014

NOTE: "FAIR" INDICATES FEW OR NO CLOUDS BELOW 12000 FEET WITH NO
SIGNIFICANT WEATHER AND/OR OBSTRUCTIONS TO VISIBILITY.

COZ001>005-013-030-031-220800-
...NORTHWEST COLORADO...

CITY           SKY/WX    TMP DP  RH WIND       PRES   REMARKS
CRAIG          CLEAR     47  42  83 CALM      30.29R
HAYDEN         CLEAR     63  37  39 E9        30.32R
MEEKER         CLEAR     61  35  37 E12       30.31R
MOUNT WERNER   NOT AVBL
STEAMBOAT SPGS CLEAR     56  40  54 CALM      30.35R
WALDEN         CLEAR     50  36  57 E8        30.44S
$$

COZ006>008-011-220800-
...WEST CENTRAL VALLEYS...

CITY           SKY/WX    TMP DP  RH WIND       PRES   REMARKS
GRAND JUNCTION CLEAR     70  19  14 E6        30.17R
MONTROSE       CLEAR     67  34  29 SE12      30.29R
EAGLE          CLEAR     61  41  48 E3        30.36R
RIFLE          CLEAR     65  34  31 CALM      30.24R
DELTA          CLEAR     67  33  28 NE8       30.23R
NUCLA          CLEAR     68  30  24 E13       30.32S
$$

COZ017>023-064>068-220800-
...SOUTHWEST COLORADO...

CITY           SKY/WX    TMP DP  RH WIND       PRES   REMARKS
DURANGO        CLEAR     61  35  37 N6        30.34R
CORTEZ         CLEAR     56  38  50 E5        30.29R
PAGOSA SPRINGS CLEAR     59  42  53 CALM      30.44R
TELLURIDE      CLEAR     57  32  38 E6        30.55S
WOLF CREEK PAS NOT AVBL
$$

COZ009-010-012-014-032>034-037-058>063-220800-
...CENTRAL COLORADO...

CITY           SKY/WX    TMP DP  RH WIND       PRES   REMARKS
ASPEN          CLEAR     58  34  40 SW7       30.44R
BUENA VISTA    CLEAR     55  35  46 CALM      30.48R
COPPER MTN     CLEAR     59  25  27 SW6       30.80R
BERTHOUD PASS  FAIR      50  36  57 W5        30.85R
COTTONWOOD PAS CLEAR     64  23  20 W12       30.62S
GUNNISON       CLEAR     54  37  54 N3        30.49R
KREMMLING      CLEAR     54  41  62 CALM      30.43R
LEADVILLE      CLEAR     47  32  56 CALM      30.62R
MONARCH PASS   CLEAR     54  28  37 W6        30.90S
SALIDA         CLEAR    N/A N/A N/A CALM      30.51R
SUNLIGHT       CLEAR     59  21  23 CALM      30.69R
WILKERSON PASS CLEAR     55  32  41 CALM      30.76S
$$

COZ069>075-220800-
...SAN LUIS VALLEY/SANGRE DE CRISTO MOUNTAINS...

CITY           SKY/WX    TMP DP  RH WIND       PRES   REMARKS
ALAMOSA        MOCLDY    56  50  80 CALM      30.42F
LA VETA PASS   NOT AVBL
SAGUACHE       CLEAR     54  43  66 NW9       30.48R
$$

COZ035-036-038>040-220800-
...NORTHERN COLORADO FRONT RANGE...

CITY           SKY/WX    TMP DP  RH WIND       PRES   REMARKS
DENVER INTL AP PTCLDY    70  47  43 SW8       30.19S
DMNS CITY PARK   N/A     69  49  48 SW5       30.20S
AURORA         PTCLDY    69  47  45 S6        30.23R
FRONT RANGE AP NOT AVBL
ERIE MUNI ARPT CLEAR     63  50  62 SW3       30.19R
BOULDER MUN AP CLEAR     70  45  40 CALM      30.21R
CENTENNIAL     CLEAR     69  42  37 SW7       30.24S
BROOMFIELD     CLEAR     73  41  31 NW7       30.23S
FORT COLLINS   CLEAR     72  48  43 SW7       30.19R
LONGMONT       CLEAR     68  48  48 W7        30.21R
$$

COZ041-046-047-076>085-087-088-220800-
...PIKES PEAK/PALMER DIVIDE AND SOUTHERN FOOTHILLS...

CITY           SKY/WX    TMP DP  RH WIND       PRES   REMARKS
COLO. SPRINGS  PTCLDY    65  49  56 NE8       30.29R
A. F. ACADEMY  PTCLDY    58  47  66 N8        30.31S
ELLICOTT       PTCLDY    66  50  56 SE7       30.27S
FALCON         PTCLDY    62  46  55 CALM      30.34S
FORT CARSON    PTCLDY    64  47  53 N7        30.25S
LIMON          CLEAR     63  48  58 SE6       30.23R
MONUMENT HILL  CLEAR     57  45  62 S7        30.34S
TRINIDAD       MOCLDY    69  52  54 SW12      30.24S
$$

COZ042>045-048>051-090-091-220800-
...NORTHEAST COLORADO...

CITY           SKY/WX    TMP DP  RH WIND       PRES   REMARKS
GREELEY ARPT   CLEAR     64  52  63 NW6       30.14S
AKRON          MOCLDY    77  51  40 NW20      30.17R
BURLINGTON     CLEAR     72  60  66 S18       30.14S
WRAY             N/A     75  60  58 SW15G21   30.07F
STERLING       MOCLDY    81  54  39 S32G58    30.06F
HOLYOKE        CLEAR     68  61  77 S7        30.08F
FORT MORGAN    MOCLDY    75  48  37 E8        30.12F
$$

COZ086-089-092>099-220800-
...SOUTHEAST COLORADO...

CITY           SKY/WX    TMP DP  RH WIND       PRES   REMARKS
PUEBLO         MOCLDY    70  53  54 CALM      30.15S
LA JUNTA       PTCLDY    76  58  53 SE13      30.15R
LAMAR          MOCLDY    75  57  53 S21       30.11S
SPRINGFIELD      N/A     67  61  81 S12       30.20F
$$


USA.gov is the U.S. government's official web portal to all federal, state and local government web resources and services.